• In Uzbekistan
  • List of Countries
  • For 7 days
  • Water Temperature
  • Satellite Maps
  • Weather Map
  • Weather Widgets
  • user-avatar
    Login

    Hourly Weather Yeghegnadzor

    Today, 24 February, Friday

    Time Temperature Precipitation Wind Pressure Humidity
    00:00 -7°C° 0 mm 2 mps 650 mmHg 94%
    01:00 -8°C° 0 mm 2 mps 650 mmHg 94%
    02:00 -8°C° 0 mm 2 mps 650 mmHg 94%
    03:00 -9°C° 0 mm 2 mps 650 mmHg 95%
    04:00 -9°C° 0 mm 2 mps 650 mmHg 94%
    05:00 -9°C° 0 mm 2 mps 650 mmHg 94%
    06:00 -8°C° 0 mm 1 mps 650 mmHg 94%
    07:00 -4°C° 0 mm 1 mps 651 mmHg 93%
    08:00 -1°C° 0 mm 1 mps 652 mmHg 93%
    09:00 +1°C° 0 mm 1 mps 653 mmHg 93%
    10:00 +2°C° 0 mm 1 mps 653 mmHg 94%
    11:00 +2°C° 0 mm 2 mps 653 mmHg 95%
    12:00 +3°C° 0 mm 2 mps 653 mmHg 97%
    13:00 +3°C° 0 mm 2 mps 653 mmHg 97%
    14:00 +5°C° 0 mm 1 mps 653 mmHg 97%
    15:00 +4°C° 0 mm 2 mps 653 mmHg 99%
    16:00 +2°C° 0 mm 2 mps 653 mmHg 98%
    17:00 +1°C° 0 mm 1 mps 653 mmHg 98%
    18:00 -2°C° 0 mm 1 mps 653 mmHg 97%
    19:00 -3°C° 0 mm 1 mps 653 mmHg 95%
    20:00 -4°C° 0 mm 1 mps 653 mmHg 93%
    21:00 -7°C° 0 mm 2 mps 653 mmHg 91%
    22:00 -7°C° 0 mm 2 mps 653 mmHg 90%
    23:00 -6°C° 0 mm 2 mps 653 mmHg 90%

    Tomorrow, 25 February, Saturday

    Time Temperature Precipitation Wind Pressure Humidity
    00:00 -6°C° 0 mm 2 mps 654 mmHg 89%
    01:00 -7°C° 0 mm 2 mps 654 mmHg 88%
    02:00 -6°C° 0 mm 1 mps 653 mmHg 88%
    03:00 -6°C° 0 mm 1 mps 653 mmHg 88%
    04:00 -6°C° 0 mm 1 mps 653 mmHg 88%
    05:00 -7°C° 0 mm 1 mps 653 mmHg 88%
    06:00 -7°C° 0 mm 1 mps 653 mmHg 89%
    07:00 -3°C° 0 mm 1 mps 654 mmHg 90%
    08:00 0°C° 0 mm 1 mps 655 mmHg 91%
    09:00 +3°C° 0 mm 1 mps 656 mmHg 92%
    10:00 +4°C° 0 mm 1 mps 656 mmHg 92%
    11:00 +5°C° 0 mm 1 mps 656 mmHg 92%
    12:00 +6°C° 0 mm 1 mps 656 mmHg 92%
    13:00 +6°C° 0 mm 1 mps 655 mmHg 92%
    14:00 +6°C° 0 mm 1 mps 655 mmHg 93%
    15:00 +6°C° 0 mm 1 mps 654 mmHg 94%
    16:00 +3°C° 0 mm 1 mps 653 mmHg 94%
    17:00 -1°C° 0 mm 1 mps 652 mmHg 94%
    18:00 -4°C° 0 mm 1 mps 651 mmHg 94%
    19:00 -6°C° 0 mm 1 mps 651 mmHg 91%
    20:00 -6°C° 0 mm 1 mps 651 mmHg 88%
    21:00 -7°C° 0 mm 1 mps 651 mmHg 85%
    22:00 -7°C° 0 mm 1 mps 651 mmHg 83%
    23:00 -7°C° 0 mm 1 mps 651 mmHg 82%

    Day after tomorrow, 26 February, Sunday

    Time Temperature Precipitation Wind Pressure Humidity
    00:00 -7°C° 0 mm 1 mps 651 mmHg 81%
    01:00 -7°C° 0 mm 1 mps 651 mmHg 81%
    02:00 -7°C° 0 mm 1 mps 651 mmHg 81%
    03:00 -7°C° 0 mm 1 mps 650 mmHg 81%
    04:00 -6°C° 0 mm 1 mps 650 mmHg 82%
    05:00 -6°C° 0 mm 1 mps 650 mmHg 83%
    06:00 -6°C° 0 mm 1 mps 650 mmHg 83%
    07:00 -3°C° 0 mm 1 mps 651 mmHg 84%
    08:00 0°C° 0 mm 1 mps 652 mmHg 84%
    09:00 +3°C° 0 mm 1 mps 653 mmHg 84%
    10:00 +4°C° 0 mm 1 mps 652 mmHg 85%
    11:00 +5°C° 0 mm 1 mps 652 mmHg 85%
    12:00 +6°C° 0 mm 1 mps 652 mmHg 86%
    13:00 +6°C° 0 mm 1 mps 652 mmHg 87%
    14:00 +6°C° 0 mm 1 mps 651 mmHg 88%
    15:00 +6°C° 0 mm 1 mps 651 mmHg 89%
    16:00 +3°C° 0 mm 1 mps 650 mmHg 91%
    17:00 0°C° 0 mm 1 mps 650 mmHg 93%
    18:00 -4°C° 0 mm 0 mps 649 mmHg 95%
    19:00 -3°C° 0 mm 1 mps 649 mmHg 95%
    20:00 -4°C° 0 mm 1 mps 650 mmHg 95%
    21:00 -4°C° 0 mm 1 mps 650 mmHg 95%
    22:00 -4°C° 0 mm 1 mps 650 mmHg 93%
    23:00 -4°C° 0 mm 1 mps 651 mmHg 91%

    27 February, Monday

    Time Temperature Precipitation Wind Pressure Humidity
    00:00 -4°C° 0 mm 1 mps 651 mmHg 90%
    01:00 -6°C° 0 mm 1 mps 651 mmHg 90%
    02:00 -6°C° 0 mm 1 mps 651 mmHg 89%
    03:00 -7°C° 0 mm 1 mps 651 mmHg 89%
    04:00 -7°C° 0 mm 1 mps 651 mmHg 89%
    05:00 -8°C° 0 mm 1 mps 651 mmHg 88%
    06:00 -8°C° 0 mm 1 mps 651 mmHg 87%
    07:00 -3°C° 0 mm 1 mps 652 mmHg 86%
    08:00 0°C° 0 mm 1 mps 654 mmHg 84%
    09:00 +3°C° 0 mm 1 mps 656 mmHg 83%
    10:00 +4°C° 0 mm 1 mps 656 mmHg 83%
    11:00 +5°C° 0 mm 1 mps 655 mmHg 83%
    12:00 +6°C° 0 mm 1 mps 655 mmHg 83%
    13:00 +6°C° 0 mm 1 mps 655 mmHg 85%
    14:00 +7°C° 0 mm 1 mps 654 mmHg 86%
    15:00 +7°C° 0 mm 1 mps 654 mmHg 87%
    16:00 +4°C° 0 mm 1 mps 653 mmHg 90%
    17:00 0°C° 0 mm 0 mps 652 mmHg 92%
    18:00 -3°C° 0 mm 0 mps 651 mmHg 94%
    19:00 -3°C° 0 mm 1 mps 651 mmHg 92%
    20:00 -3°C° 0 mm 1 mps 651 mmHg 90%
    21:00 -4°C° 0 mm 1 mps 651 mmHg 88%
    22:00 -4°C° 0 mm 1 mps 651 mmHg 87%
    23:00 -4°C° 0 mm 1 mps 651 mmHg 85%

    28 February, Tuesday

    Time Temperature Precipitation Wind Pressure Humidity
    00:00 -4°C° 0 mm 1 mps 651 mmHg 83%
    01:00 -6°C° 0 mm 1 mps 651 mmHg 82%
    02:00 -6°C° 0 mm 1 mps 651 mmHg 81%
    03:00 -6°C° 0 mm 1 mps 650 mmHg 81%
    04:00 -6°C° 0 mm 1 mps 651 mmHg 81%
    05:00 -6°C° 0 mm 1 mps 651 mmHg 81%
    06:00 -6°C° 0 mm 1 mps 651 mmHg 81%
    07:00 -2°C° 0 mm 1 mps 652 mmHg 80%
    08:00 +1°C° 0 mm 1 mps 653 mmHg 79%
    09:00 +4°C° 0 mm 1 mps 655 mmHg 79%
    10:00 +5°C° 0 mm 1 mps 655 mmHg 79%
    11:00 +6°C° 0 mm 1 mps 655 mmHg 78%
    12:00 +7°C° 0 mm 1 mps 655 mmHg 78%
    13:00 +7°C° 0 mm 1 mps 655 mmHg 80%
    14:00 +7°C° 0 mm 0 mps 654 mmHg 81%
    15:00 +7°C° 0 mm 0 mps 654 mmHg 82%
    16:00 +4°C° 0 mm 0 mps 653 mmHg 85%
    17:00 +1°C° 0 mm 0 mps 652 mmHg 89%
    18:00 -2°C° 0 mm 0 mps 652 mmHg 92%
    19:00 -2°C° 0 mm 0 mps 652 mmHg 92%
    20:00 -1°C° 0 mm 1 mps 652 mmHg 92%
    21:00 -1°C° 0 mm 1 mps 653 mmHg 92%
    22:00 -2°C° 0 mm 1 mps 653 mmHg 90%
    23:00 -2°C° 0 mm 1 mps 653 mmHg 89%

    1 March, Wednesday

    Time Temperature Precipitation Wind Pressure Humidity
    00:00 -3°C° 0 mm 1 mps 652 mmHg 87%
    01:00 -3°C° 0 mm 1 mps 652 mmHg 84%
    02:00 -3°C° 0 mm 1 mps 652 mmHg 81%
    03:00 -3°C° 0 mm 1 mps 652 mmHg 78%
    04:00 -3°C° 0 mm 1 mps 652 mmHg 76%
    05:00 -3°C° 0 mm 1 mps 652 mmHg 74%
    06:00 -3°C° 0 mm 1 mps 652 mmHg 72%
    07:00 0°C° 0 mm 1 mps 653 mmHg 73%
    08:00 +2°C° 0 mm 1 mps 654 mmHg 74%
    09:00 +5°C° 0 mm 1 mps 655 mmHg 74%
    10:00 +6°C° 0 mm 1 mps 655 mmHg 74%
    11:00 +7°C° 0 mm 1 mps 655 mmHg 75%
    12:00 +8°C° 0 mm 1 mps 655 mmHg 75%
    13:00 +9°C° 0 mm 1 mps 654 mmHg 76%
    14:00 +9°C° 0 mm 1 mps 654 mmHg 77%
    15:00 +9°C° 0 mm 1 mps 653 mmHg 79%
    16:00 +6°C° 0 mm 1 mps 653 mmHg 82%
    17:00 +4°C° 0 mm 1 mps 652 mmHg 84%
    18:00 +2°C° 0 mm 1 mps 651 mmHg 87%
    19:00 +2°C° 0 mm 1 mps 651 mmHg 85%
    20:00 +2°C° 0 mm 1 mps 651 mmHg 83%
    21:00 +1°C° 0 mm 1 mps 651 mmHg 81%
    22:00 +1°C° 0 mm 1 mps 651 mmHg 79%
    23:00 +1°C° 0 mm 1 mps 651 mmHg 77%
    Show more